• In Germany
  • List of Countries
  • For 7 days
  • Water Temperature
  • Satellite Maps
  • Weather Map
  • Weather Widgets
  • user-avatar
    Login

    Hourly Weather Nakhchivan

    Today, 23 April, Sunday

    Time Temperature Precipitation Wind Pressure Humidity
    00:00 +18°C° 0 mm 2 mps 688 mmHg 37%
    01:00 +17°C° 0 mm 2 mps 688 mmHg 38%
    02:00 +17°C° 0 mm 2 mps 688 mmHg 39%
    03:00 +16°C° 0 mm 2 mps 688 mmHg 40%
    04:00 +16°C° 0 mm 2 mps 687 mmHg 40%
    05:00 +16°C° 0 mm 2 mps 687 mmHg 41%
    06:00 +16°C° 0 mm 2 mps 687 mmHg 41%
    07:00 +19°C° 0 mm 2 mps 687 mmHg 35%
    08:00 +21°C° 0 mm 3 mps 687 mmHg 29%
    09:00 +25°C° 0 mm 3 mps 687 mmHg 24%
    10:00 +26°C° 0 mm 4 mps 687 mmHg 21%
    11:00 +28°C° 0 mm 4 mps 686 mmHg 19%
    12:00 +29°C° 0 mm 5 mps 686 mmHg 16%
    13:00 +29°C° 0 mm 6 mps 685 mmHg 16%
    14:00 +30°C° 0 mm 6 mps 684 mmHg 16%
    15:00 +30°C° 0 mm 6 mps 684 mmHg 15%
    16:00 +29°C° 0 mm 6 mps 683 mmHg 19%
    17:00 +27°C° 0 mm 5 mps 683 mmHg 22%
    18:00 +26°C° 0 mm 5 mps 682 mmHg 25%
    19:00 +25°C° 0.1 mm 4 mps 682 mmHg 29%
    20:00 +22°C° 0.1 mm 4 mps 682 mmHg 32%
    21:00 +21°C° 0.1 mm 3 mps 682 mmHg 35%
    22:00 +20°C° 0.1 mm 3 mps 682 mmHg 38%
    23:00 +19°C° 0.1 mm 3 mps 681 mmHg 40%

    Tomorrow, 24 April, Monday

    Time Temperature Precipitation Wind Pressure Humidity
    00:00 +19°C° 0.1 mm 3 mps 681 mmHg 43%
    01:00 +18°C° 0.1 mm 2 mps 681 mmHg 45%
    02:00 +17°C° 0.1 mm 2 mps 681 mmHg 48%
    03:00 +17°C° 0.1 mm 2 mps 681 mmHg 51%
    04:00 +16°C° 0.2 mm 2 mps 681 mmHg 52%
    05:00 +16°C° 0.2 mm 2 mps 681 mmHg 54%
    06:00 +16°C° 0.2 mm 2 mps 680 mmHg 56%
    07:00 +18°C° 0.1 mm 2 mps 681 mmHg 50%
    08:00 +20°C° 0.1 mm 2 mps 681 mmHg 43%
    09:00 +21°C° 0.1 mm 2 mps 681 mmHg 37%
    10:00 +22°C° 0.1 mm 3 mps 681 mmHg 33%
    11:00 +25°C° 0.1 mm 3 mps 681 mmHg 29%
    12:00 +26°C° 0.1 mm 4 mps 681 mmHg 26%
    13:00 +26°C° 0.2 mm 4 mps 681 mmHg 24%
    14:00 +26°C° 0.2 mm 4 mps 682 mmHg 23%
    15:00 +26°C° 0.2 mm 5 mps 682 mmHg 21%
    16:00 +25°C° 0 mm 5 mps 682 mmHg 24%
    17:00 +22°C° 0 mm 5 mps 682 mmHg 27%
    18:00 +21°C° 0 mm 5 mps 683 mmHg 29%
    19:00 +19°C° 0 mm 4 mps 683 mmHg 34%
    20:00 +18°C° 0 mm 3 mps 684 mmHg 38%
    21:00 +16°C° 0 mm 2 mps 685 mmHg 42%
    22:00 +15°C° 0 mm 2 mps 685 mmHg 46%
    23:00 +15°C° 0 mm 2 mps 685 mmHg 49%

    Day after tomorrow, 25 April, Tuesday

    Time Temperature Precipitation Wind Pressure Humidity
    00:00 +14°C° 0 mm 2 mps 685 mmHg 52%
    01:00 +13°C° 0 mm 2 mps 685 mmHg 52%
    02:00 +13°C° 0 mm 2 mps 685 mmHg 53%
    03:00 +12°C° 0 mm 2 mps 685 mmHg 54%
    04:00 +12°C° 0 mm 2 mps 685 mmHg 53%
    05:00 +12°C° 0 mm 2 mps 685 mmHg 52%
    06:00 +12°C° 0 mm 1 mps 686 mmHg 51%
    07:00 +14°C° 0 mm 1 mps 686 mmHg 45%
    08:00 +16°C° 0 mm 1 mps 686 mmHg 39%
    09:00 +18°C° 0 mm 1 mps 687 mmHg 33%
    10:00 +19°C° 0 mm 1 mps 687 mmHg 30%
    11:00 +20°C° 0 mm 1 mps 687 mmHg 28%
    12:00 +21°C° 0 mm 1 mps 686 mmHg 25%
    13:00 +21°C° 0 mm 2 mps 686 mmHg 25%
    14:00 +21°C° 0 mm 2 mps 686 mmHg 24%
    15:00 +23°C° 0 mm 2 mps 686 mmHg 23%
    16:00 +21°C° 0 mm 3 mps 686 mmHg 26%
    17:00 +20°C° 0 mm 3 mps 686 mmHg 29%
    18:00 +19°C° 0 mm 4 mps 687 mmHg 32%
    19:00 +18°C° 0 mm 3 mps 687 mmHg 37%
    20:00 +16°C° 0 mm 3 mps 688 mmHg 42%
    21:00 +14°C° 0 mm 3 mps 689 mmHg 46%
    22:00 +13°C° 0 mm 3 mps 689 mmHg 48%
    23:00 +12°C° 0 mm 3 mps 689 mmHg 50%

    26 April, Wednesday

    Time Temperature Precipitation Wind Pressure Humidity
    00:00 +12°C° 0 mm 2 mps 690 mmHg 52%
    01:00 +12°C° 0 mm 2 mps 690 mmHg 54%
    02:00 +10°C° 0 mm 2 mps 690 mmHg 55%
    03:00 +9°C° 0 mm 2 mps 690 mmHg 57%
    04:00 +10°C° 0 mm 1 mps 691 mmHg 57%
    05:00 +10°C° 0 mm 1 mps 691 mmHg 56%
    06:00 +10°C° 0 mm 1 mps 691 mmHg 56%
    07:00 +11°C° 0 mm 1 mps 692 mmHg 50%
    08:00 +13°C° 0 mm 2 mps 692 mmHg 45%
    09:00 +14°C° 0 mm 2 mps 692 mmHg 39%
    10:00 +15°C° 0 mm 2 mps 692 mmHg 37%
    11:00 +17°C° 0 mm 2 mps 692 mmHg 35%
    12:00 +18°C° 0 mm 3 mps 691 mmHg 33%
    13:00 +18°C° 0 mm 3 mps 691 mmHg 32%
    14:00 +19°C° 0 mm 3 mps 691 mmHg 31%
    15:00 +20°C° 0 mm 4 mps 691 mmHg 30%
    16:00 +19°C° 0 mm 4 mps 691 mmHg 33%
    17:00 +18°C° 0 mm 4 mps 691 mmHg 36%
    18:00 +17°C° 0 mm 4 mps 691 mmHg 38%
    19:00 +16°C° 0 mm 3 mps 691 mmHg 43%
    20:00 +13°C° 0 mm 3 mps 692 mmHg 47%
    21:00 +13°C° 0 mm 2 mps 692 mmHg 51%
    22:00 +12°C° 0 mm 2 mps 692 mmHg 53%
    23:00 +12°C° 0 mm 2 mps 692 mmHg 56%

    27 April, Thursday

    Time Temperature Precipitation Wind Pressure Humidity
    00:00 +10°C° 0 mm 2 mps 692 mmHg 58%
    01:00 +9°C° 0 mm 2 mps 692 mmHg 60%
    02:00 +10°C° 0 mm 1 mps 691 mmHg 61%
    03:00 +9°C° 0 mm 1 mps 691 mmHg 63%
    04:00 +10°C° 0 mm 1 mps 691 mmHg 62%
    05:00 +10°C° 0 mm 1 mps 692 mmHg 61%
    06:00 +10°C° 0 mm 1 mps 692 mmHg 61%
    07:00 +12°C° 0 mm 1 mps 692 mmHg 53%
    08:00 +13°C° 0 mm 1 mps 692 mmHg 46%
    09:00 +15°C° 0 mm 1 mps 692 mmHg 38%
    10:00 +16°C° 0 mm 2 mps 691 mmHg 34%
    11:00 +18°C° 0 mm 2 mps 691 mmHg 30%
    12:00 +19°C° 0 mm 2 mps 691 mmHg 26%
    13:00 +20°C° 0 mm 3 mps 691 mmHg 25%
    14:00 +21°C° 0 mm 3 mps 690 mmHg 25%
    15:00 +21°C° 0 mm 3 mps 690 mmHg 24%
    16:00 +20°C° 0 mm 3 mps 690 mmHg 27%
    17:00 +20°C° 0 mm 3 mps 690 mmHg 30%
    18:00 +19°C° 0 mm 3 mps 690 mmHg 34%
    19:00 +17°C° 0 mm 3 mps 690 mmHg 39%
    20:00 +16°C° 0 mm 3 mps 691 mmHg 44%
    21:00 +14°C° 0 mm 2 mps 691 mmHg 50%
    22:00 +13°C° 0 mm 2 mps 691 mmHg 53%
    23:00 +13°C° 0 mm 2 mps 691 mmHg 56%

    28 April, Friday

    Time Temperature Precipitation Wind Pressure Humidity
    00:00 +12°C° 0 mm 2 mps 691 mmHg 59%
    01:00 +12°C° 0 mm 2 mps 690 mmHg 61%
    02:00 +11°C° 0 mm 1 mps 690 mmHg 63%
    03:00 +11°C° 0 mm 1 mps 690 mmHg 64%
    04:00 +11°C° 0 mm 1 mps 690 mmHg 64%
    05:00 +11°C° 0 mm 1 mps 691 mmHg 63%
    06:00 +11°C° 0 mm 1 mps 691 mmHg 62%
    07:00 +13°C° 0 mm 1 mps 691 mmHg 54%
    08:00 +15°C° 0 mm 1 mps 691 mmHg 47%
    09:00 +18°C° 0 mm 1 mps 691 mmHg 39%
    10:00 +19°C° 0 mm 1 mps 691 mmHg 35%
    11:00 +20°C° 0 mm 2 mps 690 mmHg 32%
    12:00 +21°C° 0 mm 2 mps 690 mmHg 29%
    13:00 +23°C° 0 mm 2 mps 689 mmHg 27%
    14:00 +23°C° 0 mm 2 mps 689 mmHg 26%
    15:00 +24°C° 0 mm 2 mps 689 mmHg 25%
    16:00 +23°C° 0.1 mm 2 mps 689 mmHg 28%
    17:00 +22°C° 0.1 mm 3 mps 689 mmHg 31%
    18:00 +21°C° 0.1 mm 3 mps 688 mmHg 33%
    19:00 +19°C° 0.1 mm 2 mps 689 mmHg 39%
    20:00 +17°C° 0.1 mm 2 mps 689 mmHg 45%
    21:00 +16°C° 0.1 mm 2 mps 689 mmHg 51%
    22:00 +15°C° 0 mm 2 mps 689 mmHg 53%
    23:00 +14°C° 0 mm 2 mps 688 mmHg 56%
    Show more